<?xml version="1.0"?>
<gpx xmlns="http://www.topografix.com/GPX/1/1" xmlns:xsi="http://www.w3.org/2001/XMLSchema-instance" version="1.1" creator="GPX RubyGem 1.0.0 -- http://dougfales.github.io/gpx/" xsi:schemaLocation="http://www.topografix.com/GPX/1/1 http://www.topografix.com/GPX/1/1/gpx.xsd">
  <metadata>
    <name/>
    <time>2026-05-08T03:44:42+00:00</time>
    <bound minlat="90.0" minlon="180.0" maxlat="-90.0" maxlon="-180.0"/>
  </metadata>
  <trk>
    <name/>
    <trkseg>
      <trkpt lat="35.394756" lon="138.73273">
        <time>1970-01-01T00:00:00+00:00</time>
        <ele>2305.0</ele>
      </trkpt>
      <trkpt lat="35.394751" lon="138.73271">
        <time>1970-01-01T00:00:00+00:00</time>
        <ele>2304.0</ele>
      </trkpt>
      <trkpt lat="35.394928" lon="138.732653">
        <time>1970-01-01T00:00:00+00:00</time>
        <ele>2301.0</ele>
      </trkpt>
      <trkpt lat="35.39499" lon="138.732904">
        <time>1970-01-01T00:00:00+00:00</time>
        <ele>2302.0</ele>
      </trkpt>
      <trkpt lat="35.394968" lon="138.73291">
        <time>1970-01-01T00:00:00+00:00</time>
        <ele>2303.0</ele>
      </trkpt>
      <trkpt lat="35.394774" lon="138.732971">
        <time>1970-01-01T00:00:00+00:00</time>
        <ele>2306.0</ele>
      </trkpt>
      <trkpt lat="35.39467" lon="138.732957">
        <time>1970-01-01T00:00:00+00:00</time>
        <ele>2307.0</ele>
      </trkpt>
      <trkpt lat="35.394607" lon="138.73293">
        <time>1970-01-01T00:00:00+00:00</time>
        <ele>2307.0</ele>
      </trkpt>
      <trkpt lat="35.39454" lon="138.732852">
        <time>1970-01-01T00:00:00+00:00</time>
        <ele>2307.0</ele>
      </trkpt>
      <trkpt lat="35.394484" lon="138.732909">
        <time>1970-01-01T00:00:00+00:00</time>
        <ele>2307.0</ele>
      </trkpt>
      <trkpt lat="35.394414" lon="138.732939">
        <time>1970-01-01T00:00:00+00:00</time>
        <ele>2306.0</ele>
      </trkpt>
      <trkpt lat="35.394369" lon="138.73305">
        <time>1970-01-01T00:00:00+00:00</time>
        <ele>2306.0</ele>
      </trkpt>
      <trkpt lat="35.394313" lon="138.733225">
        <time>1970-01-01T00:00:00+00:00</time>
        <ele>2306.0</ele>
      </trkpt>
      <trkpt lat="35.394257" lon="138.733322">
        <time>1970-01-01T00:00:00+00:00</time>
        <ele>2306.0</ele>
      </trkpt>
      <trkpt lat="35.394175" lon="138.733389">
        <time>1970-01-01T00:00:00+00:00</time>
        <ele>2306.0</ele>
      </trkpt>
      <trkpt lat="35.394123" lon="138.733413">
        <time>1970-01-01T00:00:00+00:00</time>
        <ele>2307.0</ele>
      </trkpt>
      <trkpt lat="35.394069" lon="138.733408">
        <time>1970-01-01T00:00:00+00:00</time>
        <ele>2308.0</ele>
      </trkpt>
      <trkpt lat="35.394006" lon="138.733428">
        <time>1970-01-01T00:00:00+00:00</time>
        <ele>2308.0</ele>
      </trkpt>
      <trkpt lat="35.393909" lon="138.733576">
        <time>1970-01-01T00:00:00+00:00</time>
        <ele>2306.0</ele>
      </trkpt>
      <trkpt lat="35.393657" lon="138.733681">
        <time>1970-01-01T00:00:00+00:00</time>
        <ele>2307.0</ele>
      </trkpt>
      <trkpt lat="35.393213" lon="138.73391">
        <time>1970-01-01T00:00:00+00:00</time>
        <ele>2310.0</ele>
      </trkpt>
      <trkpt lat="35.392745" lon="138.734286">
        <time>1970-01-01T00:00:00+00:00</time>
        <ele>2315.0</ele>
      </trkpt>
      <trkpt lat="35.392543" lon="138.734537">
        <time>1970-01-01T00:00:00+00:00</time>
        <ele>2319.0</ele>
      </trkpt>
      <trkpt lat="35.392432" lon="138.734781">
        <time>1970-01-01T00:00:00+00:00</time>
        <ele>2318.0</ele>
      </trkpt>
      <trkpt lat="35.392312" lon="138.73518">
        <time>1970-01-01T00:00:00+00:00</time>
        <ele>2312.0</ele>
      </trkpt>
      <trkpt lat="35.39216" lon="138.735511">
        <time>1970-01-01T00:00:00+00:00</time>
        <ele>2307.0</ele>
      </trkpt>
      <trkpt lat="35.391966" lon="138.735821">
        <time>1970-01-01T00:00:00+00:00</time>
        <ele>2307.0</ele>
      </trkpt>
      <trkpt lat="35.391661" lon="138.736526">
        <time>1970-01-01T00:00:00+00:00</time>
        <ele>2310.0</ele>
      </trkpt>
      <trkpt lat="35.391515" lon="138.737068">
        <time>1970-01-01T00:00:00+00:00</time>
        <ele>2307.0</ele>
      </trkpt>
      <trkpt lat="35.390873" lon="138.73887">
        <time>1970-01-01T00:00:00+00:00</time>
        <ele>2299.0</ele>
      </trkpt>
      <trkpt lat="35.390429" lon="138.740502">
        <time>1970-01-01T00:00:00+00:00</time>
        <ele>2292.0</ele>
      </trkpt>
      <trkpt lat="35.390426" lon="138.741001">
        <time>1970-01-01T00:00:00+00:00</time>
        <ele>2287.0</ele>
      </trkpt>
      <trkpt lat="35.390391" lon="138.741234">
        <time>1970-01-01T00:00:00+00:00</time>
        <ele>2283.0</ele>
      </trkpt>
      <trkpt lat="35.390309" lon="138.741564">
        <time>1970-01-01T00:00:00+00:00</time>
        <ele>2281.0</ele>
      </trkpt>
      <trkpt lat="35.390253" lon="138.741703">
        <time>1970-01-01T00:00:00+00:00</time>
        <ele>2280.0</ele>
      </trkpt>
      <trkpt lat="35.390033" lon="138.742125">
        <time>1970-01-01T00:00:00+00:00</time>
        <ele>2274.0</ele>
      </trkpt>
      <trkpt lat="35.389787" lon="138.742144">
        <time>1970-01-01T00:00:00+00:00</time>
        <ele>2283.0</ele>
      </trkpt>
      <trkpt lat="35.389362" lon="138.742287">
        <time>1970-01-01T00:00:00+00:00</time>
        <ele>2286.0</ele>
      </trkpt>
      <trkpt lat="35.389009" lon="138.742427">
        <time>1970-01-01T00:00:00+00:00</time>
        <ele>2292.0</ele>
      </trkpt>
      <trkpt lat="35.388583" lon="138.742755">
        <time>1970-01-01T00:00:00+00:00</time>
        <ele>2307.0</ele>
      </trkpt>
      <trkpt lat="35.388243" lon="138.743101">
        <time>1970-01-01T00:00:00+00:00</time>
        <ele>2320.0</ele>
      </trkpt>
      <trkpt lat="35.387944" lon="138.743303">
        <time>1970-01-01T00:00:00+00:00</time>
        <ele>2323.0</ele>
      </trkpt>
      <trkpt lat="35.387791" lon="138.743442">
        <time>1970-01-01T00:00:00+00:00</time>
        <ele>2325.0</ele>
      </trkpt>
      <trkpt lat="35.387512" lon="138.743755">
        <time>1970-01-01T00:00:00+00:00</time>
        <ele>2325.0</ele>
      </trkpt>
      <trkpt lat="35.387242" lon="138.743906">
        <time>1970-01-01T00:00:00+00:00</time>
        <ele>2332.0</ele>
      </trkpt>
      <trkpt lat="35.386947" lon="138.74412">
        <time>1970-01-01T00:00:00+00:00</time>
        <ele>2340.0</ele>
      </trkpt>
      <trkpt lat="35.386495" lon="138.744673">
        <time>1970-01-01T00:00:00+00:00</time>
        <ele>2350.0</ele>
      </trkpt>
      <trkpt lat="35.386113" lon="138.744948">
        <time>1970-01-01T00:00:00+00:00</time>
        <ele>2373.0</ele>
      </trkpt>
      <trkpt lat="35.386045" lon="138.745097">
        <time>1970-01-01T00:00:00+00:00</time>
        <ele>2378.0</ele>
      </trkpt>
      <trkpt lat="35.386079" lon="138.745276">
        <time>1970-01-01T00:00:00+00:00</time>
        <ele>2374.0</ele>
      </trkpt>
      <trkpt lat="35.38603" lon="138.745456">
        <time>1970-01-01T00:00:00+00:00</time>
        <ele>2376.0</ele>
      </trkpt>
      <trkpt lat="35.385952" lon="138.745626">
        <time>1970-01-01T00:00:00+00:00</time>
        <ele>2380.0</ele>
      </trkpt>
      <trkpt lat="35.385792" lon="138.745872">
        <time>1970-01-01T00:00:00+00:00</time>
        <ele>2387.0</ele>
      </trkpt>
      <trkpt lat="35.385668" lon="138.746171">
        <time>1970-01-01T00:00:00+00:00</time>
        <ele>2390.0</ele>
      </trkpt>
      <trkpt lat="35.385705" lon="138.746324">
        <time>1970-01-01T00:00:00+00:00</time>
        <ele>2387.0</ele>
      </trkpt>
      <trkpt lat="35.385636" lon="138.74658">
        <time>1970-01-01T00:00:00+00:00</time>
        <ele>2387.0</ele>
      </trkpt>
      <trkpt lat="35.385545" lon="138.74676">
        <time>1970-01-01T00:00:00+00:00</time>
        <ele>2390.0</ele>
      </trkpt>
      <trkpt lat="35.385415" lon="138.746913">
        <time>1970-01-01T00:00:00+00:00</time>
        <ele>2395.0</ele>
      </trkpt>
      <trkpt lat="35.385353" lon="138.74708">
        <time>1970-01-01T00:00:00+00:00</time>
        <ele>2397.0</ele>
      </trkpt>
      <trkpt lat="35.385245" lon="138.747718">
        <time>1970-01-01T00:00:00+00:00</time>
        <ele>2395.0</ele>
      </trkpt>
      <trkpt lat="35.385063" lon="138.747526">
        <time>1970-01-01T00:00:00+00:00</time>
        <ele>2403.0</ele>
      </trkpt>
      <trkpt lat="35.38475" lon="138.747611">
        <time>1970-01-01T00:00:00+00:00</time>
        <ele>2414.0</ele>
      </trkpt>
      <trkpt lat="35.384274" lon="138.74764">
        <time>1970-01-01T00:00:00+00:00</time>
        <ele>2426.0</ele>
      </trkpt>
      <trkpt lat="35.383526" lon="138.747729">
        <time>1970-01-01T00:00:00+00:00</time>
        <ele>2440.0</ele>
      </trkpt>
      <trkpt lat="35.38333" lon="138.747618">
        <time>1970-01-01T00:00:00+00:00</time>
        <ele>2449.0</ele>
      </trkpt>
      <trkpt lat="35.383032" lon="138.747676">
        <time>1970-01-01T00:00:00+00:00</time>
        <ele>2456.0</ele>
      </trkpt>
      <trkpt lat="35.382886" lon="138.747749">
        <time>1970-01-01T00:00:00+00:00</time>
        <ele>2459.0</ele>
      </trkpt>
      <trkpt lat="35.382695" lon="138.747817">
        <time>1970-01-01T00:00:00+00:00</time>
        <ele>2465.0</ele>
      </trkpt>
      <trkpt lat="35.382453" lon="138.747873">
        <time>1970-01-01T00:00:00+00:00</time>
        <ele>2471.0</ele>
      </trkpt>
      <trkpt lat="35.382236" lon="138.747801">
        <time>1970-01-01T00:00:00+00:00</time>
        <ele>2481.0</ele>
      </trkpt>
      <trkpt lat="35.382023" lon="138.747969">
        <time>1970-01-01T00:00:00+00:00</time>
        <ele>2480.0</ele>
      </trkpt>
      <trkpt lat="35.381489" lon="138.747869">
        <time>1970-01-01T00:00:00+00:00</time>
        <ele>2497.0</ele>
      </trkpt>
      <trkpt lat="35.381624" lon="138.747629">
        <time>1970-01-01T00:00:00+00:00</time>
        <ele>2506.0</ele>
      </trkpt>
      <trkpt lat="35.381677" lon="138.747285">
        <time>1970-01-01T00:00:00+00:00</time>
        <ele>2515.0</ele>
      </trkpt>
      <trkpt lat="35.381453" lon="138.747192">
        <time>1970-01-01T00:00:00+00:00</time>
        <ele>2523.0</ele>
      </trkpt>
      <trkpt lat="35.381353" lon="138.747174">
        <time>1970-01-01T00:00:00+00:00</time>
        <ele>2526.0</ele>
      </trkpt>
      <trkpt lat="35.381204" lon="138.747118">
        <time>1970-01-01T00:00:00+00:00</time>
        <ele>2531.0</ele>
      </trkpt>
      <trkpt lat="35.381153" lon="138.747042">
        <time>1970-01-01T00:00:00+00:00</time>
        <ele>2536.0</ele>
      </trkpt>
      <trkpt lat="35.38118" lon="138.746951">
        <time>1970-01-01T00:00:00+00:00</time>
        <ele>2538.0</ele>
      </trkpt>
      <trkpt lat="35.381244" lon="138.746871">
        <time>1970-01-01T00:00:00+00:00</time>
        <ele>2538.0</ele>
      </trkpt>
      <trkpt lat="35.381319" lon="138.746789">
        <time>1970-01-01T00:00:00+00:00</time>
        <ele>2538.0</ele>
      </trkpt>
      <trkpt lat="35.38138" lon="138.746678">
        <time>1970-01-01T00:00:00+00:00</time>
        <ele>2539.0</ele>
      </trkpt>
      <trkpt lat="35.380967" lon="138.74657">
        <time>1970-01-01T00:00:00+00:00</time>
        <ele>2554.0</ele>
      </trkpt>
      <trkpt lat="35.380945" lon="138.746542">
        <time>1970-01-01T00:00:00+00:00</time>
        <ele>2556.0</ele>
      </trkpt>
      <trkpt lat="35.380944" lon="138.746514">
        <time>1970-01-01T00:00:00+00:00</time>
        <ele>2557.0</ele>
      </trkpt>
      <trkpt lat="35.381016" lon="138.746398">
        <time>1970-01-01T00:00:00+00:00</time>
        <ele>2558.0</ele>
      </trkpt>
      <trkpt lat="35.381011" lon="138.746328">
        <time>1970-01-01T00:00:00+00:00</time>
        <ele>2561.0</ele>
      </trkpt>
      <trkpt lat="35.380986" lon="138.7463">
        <time>1970-01-01T00:00:00+00:00</time>
        <ele>2563.0</ele>
      </trkpt>
      <trkpt lat="35.380771" lon="138.746273">
        <time>1970-01-01T00:00:00+00:00</time>
        <ele>2571.0</ele>
      </trkpt>
      <trkpt lat="35.380738" lon="138.746237">
        <time>1970-01-01T00:00:00+00:00</time>
        <ele>2573.0</ele>
      </trkpt>
      <trkpt lat="35.380732" lon="138.746211">
        <time>1970-01-01T00:00:00+00:00</time>
        <ele>2574.0</ele>
      </trkpt>
      <trkpt lat="35.380824" lon="138.745995">
        <time>1970-01-01T00:00:00+00:00</time>
        <ele>2580.0</ele>
      </trkpt>
      <trkpt lat="35.380814" lon="138.74594">
        <time>1970-01-01T00:00:00+00:00</time>
        <ele>2582.0</ele>
      </trkpt>
      <trkpt lat="35.38058" lon="138.745785">
        <time>1970-01-01T00:00:00+00:00</time>
        <ele>2592.0</ele>
      </trkpt>
      <trkpt lat="35.380423" lon="138.745579">
        <time>1970-01-01T00:00:00+00:00</time>
        <ele>2605.0</ele>
      </trkpt>
      <trkpt lat="35.380338" lon="138.745503">
        <time>1970-01-01T00:00:00+00:00</time>
        <ele>2611.0</ele>
      </trkpt>
      <trkpt lat="35.380115" lon="138.745527">
        <time>1970-01-01T00:00:00+00:00</time>
        <ele>2619.0</ele>
      </trkpt>
      <trkpt lat="35.379949" lon="138.745702">
        <time>1970-01-01T00:00:00+00:00</time>
        <ele>2618.0</ele>
      </trkpt>
      <trkpt lat="35.379589" lon="138.745895">
        <time>1970-01-01T00:00:00+00:00</time>
        <ele>2628.0</ele>
      </trkpt>
      <trkpt lat="35.379476" lon="138.745936">
        <time>1970-01-01T00:00:00+00:00</time>
        <ele>2632.0</ele>
      </trkpt>
      <trkpt lat="35.379352" lon="138.745936">
        <time>1970-01-01T00:00:00+00:00</time>
        <ele>2636.0</ele>
      </trkpt>
      <trkpt lat="35.379296" lon="138.745895">
        <time>1970-01-01T00:00:00+00:00</time>
        <ele>2639.0</ele>
      </trkpt>
      <trkpt lat="35.379255" lon="138.745791">
        <time>1970-01-01T00:00:00+00:00</time>
        <ele>2644.0</ele>
      </trkpt>
      <trkpt lat="35.3792" lon="138.745455">
        <time>1970-01-01T00:00:00+00:00</time>
        <ele>2658.0</ele>
      </trkpt>
      <trkpt lat="35.379166" lon="138.745359">
        <time>1970-01-01T00:00:00+00:00</time>
        <ele>2663.0</ele>
      </trkpt>
      <trkpt lat="35.378902" lon="138.745489">
        <time>1970-01-01T00:00:00+00:00</time>
        <ele>2672.0</ele>
      </trkpt>
      <trkpt lat="35.378806" lon="138.745496">
        <time>1970-01-01T00:00:00+00:00</time>
        <ele>2677.0</ele>
      </trkpt>
      <trkpt lat="35.378792" lon="138.745337">
        <time>1970-01-01T00:00:00+00:00</time>
        <ele>2682.0</ele>
      </trkpt>
      <trkpt lat="35.378701" lon="138.744901">
        <time>1970-01-01T00:00:00+00:00</time>
        <ele>2695.0</ele>
      </trkpt>
      <trkpt lat="35.378726" lon="138.744807">
        <time>1970-01-01T00:00:00+00:00</time>
        <ele>2697.0</ele>
      </trkpt>
      <trkpt lat="35.378806" lon="138.744665">
        <time>1970-01-01T00:00:00+00:00</time>
        <ele>2699.0</ele>
      </trkpt>
      <trkpt lat="35.37875" lon="138.744626">
        <time>1970-01-01T00:00:00+00:00</time>
        <ele>2702.0</ele>
      </trkpt>
      <trkpt lat="35.378669" lon="138.744602">
        <time>1970-01-01T00:00:00+00:00</time>
        <ele>2706.0</ele>
      </trkpt>
      <trkpt lat="35.378619" lon="138.744516">
        <time>1970-01-01T00:00:00+00:00</time>
        <ele>2711.0</ele>
      </trkpt>
      <trkpt lat="35.378633" lon="138.744404">
        <time>1970-01-01T00:00:00+00:00</time>
        <ele>2714.0</ele>
      </trkpt>
      <trkpt lat="35.378781" lon="138.744193">
        <time>1970-01-01T00:00:00+00:00</time>
        <ele>2715.0</ele>
      </trkpt>
      <trkpt lat="35.378773" lon="138.744079">
        <time>1970-01-01T00:00:00+00:00</time>
        <ele>2718.0</ele>
      </trkpt>
      <trkpt lat="35.378735" lon="138.744017">
        <time>1970-01-01T00:00:00+00:00</time>
        <ele>2721.0</ele>
      </trkpt>
      <trkpt lat="35.378664" lon="138.743981">
        <time>1970-01-01T00:00:00+00:00</time>
        <ele>2725.0</ele>
      </trkpt>
      <trkpt lat="35.378582" lon="138.744017">
        <time>1970-01-01T00:00:00+00:00</time>
        <ele>2728.0</ele>
      </trkpt>
      <trkpt lat="35.378513" lon="138.744074">
        <time>1970-01-01T00:00:00+00:00</time>
        <ele>2730.0</ele>
      </trkpt>
      <trkpt lat="35.378474" lon="138.743992">
        <time>1970-01-01T00:00:00+00:00</time>
        <ele>2735.0</ele>
      </trkpt>
      <trkpt lat="35.378406" lon="138.744029">
        <time>1970-01-01T00:00:00+00:00</time>
        <ele>2738.0</ele>
      </trkpt>
      <trkpt lat="35.378385" lon="138.743949">
        <time>1970-01-01T00:00:00+00:00</time>
        <ele>2741.0</ele>
      </trkpt>
      <trkpt lat="35.378436" lon="138.743879">
        <time>1970-01-01T00:00:00+00:00</time>
        <ele>2739.0</ele>
      </trkpt>
      <trkpt lat="35.378371" lon="138.743776">
        <time>1970-01-01T00:00:00+00:00</time>
        <ele>2745.0</ele>
      </trkpt>
      <trkpt lat="35.37835" lon="138.743709">
        <time>1970-01-01T00:00:00+00:00</time>
        <ele>2748.0</ele>
      </trkpt>
      <trkpt lat="35.378243" lon="138.743599">
        <time>1970-01-01T00:00:00+00:00</time>
        <ele>2756.0</ele>
      </trkpt>
      <trkpt lat="35.378097" lon="138.743613">
        <time>1970-01-01T00:00:00+00:00</time>
        <ele>2763.0</ele>
      </trkpt>
      <trkpt lat="35.377934" lon="138.743739">
        <time>1970-01-01T00:00:00+00:00</time>
        <ele>2767.0</ele>
      </trkpt>
      <trkpt lat="35.377825" lon="138.743786">
        <time>1970-01-01T00:00:00+00:00</time>
        <ele>2773.0</ele>
      </trkpt>
      <trkpt lat="35.377704" lon="138.743742">
        <time>1970-01-01T00:00:00+00:00</time>
        <ele>2780.0</ele>
      </trkpt>
      <trkpt lat="35.377673" lon="138.743668">
        <time>1970-01-01T00:00:00+00:00</time>
        <ele>2784.0</ele>
      </trkpt>
      <trkpt lat="35.377751" lon="138.743519">
        <time>1970-01-01T00:00:00+00:00</time>
        <ele>2784.0</ele>
      </trkpt>
      <trkpt lat="35.377717" lon="138.743455">
        <time>1970-01-01T00:00:00+00:00</time>
        <ele>2789.0</ele>
      </trkpt>
      <trkpt lat="35.377645" lon="138.743408">
        <time>1970-01-01T00:00:00+00:00</time>
        <ele>2795.0</ele>
      </trkpt>
      <trkpt lat="35.377507" lon="138.743436">
        <time>1970-01-01T00:00:00+00:00</time>
        <ele>2804.0</ele>
      </trkpt>
      <trkpt lat="35.377385" lon="138.743493">
        <time>1970-01-01T00:00:00+00:00</time>
        <ele>2807.0</ele>
      </trkpt>
      <trkpt lat="35.377327" lon="138.743432">
        <time>1970-01-01T00:00:00+00:00</time>
        <ele>2811.0</ele>
      </trkpt>
      <trkpt lat="35.377375" lon="138.743304">
        <time>1970-01-01T00:00:00+00:00</time>
        <ele>2814.0</ele>
      </trkpt>
      <trkpt lat="35.377451" lon="138.7432">
        <time>1970-01-01T00:00:00+00:00</time>
        <ele>2815.0</ele>
      </trkpt>
      <trkpt lat="35.377498" lon="138.743101">
        <time>1970-01-01T00:00:00+00:00</time>
        <ele>2816.0</ele>
      </trkpt>
      <trkpt lat="35.377376" lon="138.742962">
        <time>1970-01-01T00:00:00+00:00</time>
        <ele>2824.0</ele>
      </trkpt>
      <trkpt lat="35.377154" lon="138.742966">
        <time>1970-01-01T00:00:00+00:00</time>
        <ele>2836.0</ele>
      </trkpt>
      <trkpt lat="35.377073" lon="138.743055">
        <time>1970-01-01T00:00:00+00:00</time>
        <ele>2839.0</ele>
      </trkpt>
      <trkpt lat="35.376981" lon="138.743028">
        <time>1970-01-01T00:00:00+00:00</time>
        <ele>2845.0</ele>
      </trkpt>
      <trkpt lat="35.376908" lon="138.742973">
        <time>1970-01-01T00:00:00+00:00</time>
        <ele>2851.0</ele>
      </trkpt>
      <trkpt lat="35.376966" lon="138.742839">
        <time>1970-01-01T00:00:00+00:00</time>
        <ele>2850.0</ele>
      </trkpt>
      <trkpt lat="35.376791" lon="138.742827">
        <time>1970-01-01T00:00:00+00:00</time>
        <ele>2860.0</ele>
      </trkpt>
      <trkpt lat="35.376661" lon="138.742926">
        <time>1970-01-01T00:00:00+00:00</time>
        <ele>2862.0</ele>
      </trkpt>
      <trkpt lat="35.37656" lon="138.742888">
        <time>1970-01-01T00:00:00+00:00</time>
        <ele>2869.0</ele>
      </trkpt>
      <trkpt lat="35.376445" lon="138.742816">
        <time>1970-01-01T00:00:00+00:00</time>
        <ele>2877.0</ele>
      </trkpt>
      <trkpt lat="35.376308" lon="138.742775">
        <time>1970-01-01T00:00:00+00:00</time>
        <ele>2887.0</ele>
      </trkpt>
      <trkpt lat="35.376235" lon="138.742783">
        <time>1970-01-01T00:00:00+00:00</time>
        <ele>2891.0</ele>
      </trkpt>
      <trkpt lat="35.376147" lon="138.742814">
        <time>1970-01-01T00:00:00+00:00</time>
        <ele>2896.0</ele>
      </trkpt>
      <trkpt lat="35.376047" lon="138.742879">
        <time>1970-01-01T00:00:00+00:00</time>
        <ele>2900.0</ele>
      </trkpt>
      <trkpt lat="35.37587" lon="138.74316">
        <time>1970-01-01T00:00:00+00:00</time>
        <ele>2898.0</ele>
      </trkpt>
      <trkpt lat="35.375746" lon="138.743088">
        <time>1970-01-01T00:00:00+00:00</time>
        <ele>2906.0</ele>
      </trkpt>
      <trkpt lat="35.375621" lon="138.742949">
        <time>1970-01-01T00:00:00+00:00</time>
        <ele>2917.0</ele>
      </trkpt>
      <trkpt lat="35.375542" lon="138.7429">
        <time>1970-01-01T00:00:00+00:00</time>
        <ele>2922.0</ele>
      </trkpt>
      <trkpt lat="35.375457" lon="138.742893">
        <time>1970-01-01T00:00:00+00:00</time>
        <ele>2926.0</ele>
      </trkpt>
      <trkpt lat="35.375315" lon="138.742955">
        <time>1970-01-01T00:00:00+00:00</time>
        <ele>2929.0</ele>
      </trkpt>
      <trkpt lat="35.375156" lon="138.742971">
        <time>1970-01-01T00:00:00+00:00</time>
        <ele>2935.0</ele>
      </trkpt>
      <trkpt lat="35.375131" lon="138.742939">
        <time>1970-01-01T00:00:00+00:00</time>
        <ele>2937.0</ele>
      </trkpt>
      <trkpt lat="35.375106" lon="138.742842">
        <time>1970-01-01T00:00:00+00:00</time>
        <ele>2941.0</ele>
      </trkpt>
      <trkpt lat="35.37511" lon="138.742702">
        <time>1970-01-01T00:00:00+00:00</time>
        <ele>2947.0</ele>
      </trkpt>
      <trkpt lat="35.37493" lon="138.74241">
        <time>1970-01-01T00:00:00+00:00</time>
        <ele>2964.0</ele>
      </trkpt>
      <trkpt lat="35.374765" lon="138.742513">
        <time>1970-01-01T00:00:00+00:00</time>
        <ele>2965.0</ele>
      </trkpt>
      <trkpt lat="35.374588" lon="138.742394">
        <time>1970-01-01T00:00:00+00:00</time>
        <ele>2977.0</ele>
      </trkpt>
      <trkpt lat="35.374501" lon="138.742308">
        <time>1970-01-01T00:00:00+00:00</time>
        <ele>2983.0</ele>
      </trkpt>
      <trkpt lat="35.374476" lon="138.742125">
        <time>1970-01-01T00:00:00+00:00</time>
        <ele>2988.0</ele>
      </trkpt>
      <trkpt lat="35.374301" lon="138.741883">
        <time>1970-01-01T00:00:00+00:00</time>
        <ele>3002.0</ele>
      </trkpt>
      <trkpt lat="35.374322" lon="138.741791">
        <time>1970-01-01T00:00:00+00:00</time>
        <ele>3004.0</ele>
      </trkpt>
      <trkpt lat="35.374243" lon="138.741671">
        <time>1970-01-01T00:00:00+00:00</time>
        <ele>3010.0</ele>
      </trkpt>
      <trkpt lat="35.37425" lon="138.741512">
        <time>1970-01-01T00:00:00+00:00</time>
        <ele>3015.0</ele>
      </trkpt>
      <trkpt lat="35.374161" lon="138.741425">
        <time>1970-01-01T00:00:00+00:00</time>
        <ele>3021.0</ele>
      </trkpt>
      <trkpt lat="35.373981" lon="138.741589">
        <time>1970-01-01T00:00:00+00:00</time>
        <ele>3026.0</ele>
      </trkpt>
      <trkpt lat="35.373866" lon="138.741624">
        <time>1970-01-01T00:00:00+00:00</time>
        <ele>3030.0</ele>
      </trkpt>
      <trkpt lat="35.373826" lon="138.741522">
        <time>1970-01-01T00:00:00+00:00</time>
        <ele>3036.0</ele>
      </trkpt>
      <trkpt lat="35.373803" lon="138.74138">
        <time>1970-01-01T00:00:00+00:00</time>
        <ele>3042.0</ele>
      </trkpt>
      <trkpt lat="35.373808" lon="138.741248">
        <time>1970-01-01T00:00:00+00:00</time>
        <ele>3045.0</ele>
      </trkpt>
      <trkpt lat="35.373651" lon="138.741076">
        <time>1970-01-01T00:00:00+00:00</time>
        <ele>3058.0</ele>
      </trkpt>
      <trkpt lat="35.373446" lon="138.741028">
        <time>1970-01-01T00:00:00+00:00</time>
        <ele>3070.0</ele>
      </trkpt>
      <trkpt lat="35.373226" lon="138.741141">
        <time>1970-01-01T00:00:00+00:00</time>
        <ele>3077.0</ele>
      </trkpt>
      <trkpt lat="35.373078" lon="138.741192">
        <time>1970-01-01T00:00:00+00:00</time>
        <ele>3081.0</ele>
      </trkpt>
      <trkpt lat="35.373105" lon="138.741012">
        <time>1970-01-01T00:00:00+00:00</time>
        <ele>3088.0</ele>
      </trkpt>
      <trkpt lat="35.372993" lon="138.741103">
        <time>1970-01-01T00:00:00+00:00</time>
        <ele>3088.0</ele>
      </trkpt>
      <trkpt lat="35.37303" lon="138.740965">
        <time>1970-01-01T00:00:00+00:00</time>
        <ele>3092.0</ele>
      </trkpt>
      <trkpt lat="35.372877" lon="138.741005">
        <time>1970-01-01T00:00:00+00:00</time>
        <ele>3097.0</ele>
      </trkpt>
      <trkpt lat="35.37293" lon="138.7405">
        <time>1970-01-01T00:00:00+00:00</time>
        <ele>3108.0</ele>
      </trkpt>
      <trkpt lat="35.37286" lon="138.740161">
        <time>1970-01-01T00:00:00+00:00</time>
        <ele>3119.0</ele>
      </trkpt>
      <trkpt lat="35.372693" lon="138.740258">
        <time>1970-01-01T00:00:00+00:00</time>
        <ele>3127.0</ele>
      </trkpt>
      <trkpt lat="35.372519" lon="138.740407">
        <time>1970-01-01T00:00:00+00:00</time>
        <ele>3132.0</ele>
      </trkpt>
      <trkpt lat="35.372481" lon="138.740373">
        <time>1970-01-01T00:00:00+00:00</time>
        <ele>3135.0</ele>
      </trkpt>
      <trkpt lat="35.372466" lon="138.739996">
        <time>1970-01-01T00:00:00+00:00</time>
        <ele>3147.0</ele>
      </trkpt>
      <trkpt lat="35.372302" lon="138.740083">
        <time>1970-01-01T00:00:00+00:00</time>
        <ele>3151.0</ele>
      </trkpt>
      <trkpt lat="35.372308" lon="138.739929">
        <time>1970-01-01T00:00:00+00:00</time>
        <ele>3156.0</ele>
      </trkpt>
      <trkpt lat="35.372136" lon="138.740006">
        <time>1970-01-01T00:00:00+00:00</time>
        <ele>3163.0</ele>
      </trkpt>
      <trkpt lat="35.372158" lon="138.739783">
        <time>1970-01-01T00:00:00+00:00</time>
        <ele>3168.0</ele>
      </trkpt>
      <trkpt lat="35.371991" lon="138.73993">
        <time>1970-01-01T00:00:00+00:00</time>
        <ele>3175.0</ele>
      </trkpt>
      <trkpt lat="35.371991" lon="138.739738">
        <time>1970-01-01T00:00:00+00:00</time>
        <ele>3179.0</ele>
      </trkpt>
      <trkpt lat="35.371575" lon="138.740021">
        <time>1970-01-01T00:00:00+00:00</time>
        <ele>3194.0</ele>
      </trkpt>
      <trkpt lat="35.371573" lon="138.739946">
        <time>1970-01-01T00:00:00+00:00</time>
        <ele>3197.0</ele>
      </trkpt>
      <trkpt lat="35.371609" lon="138.739844">
        <time>1970-01-01T00:00:00+00:00</time>
        <ele>3198.0</ele>
      </trkpt>
      <trkpt lat="35.371659" lon="138.739705">
        <time>1970-01-01T00:00:00+00:00</time>
        <ele>3199.0</ele>
      </trkpt>
      <trkpt lat="35.371659" lon="138.739705">
        <time>1970-01-01T00:00:00+00:00</time>
        <ele>3199.0</ele>
      </trkpt>
      <trkpt lat="35.371609" lon="138.739844">
        <time>1970-01-01T00:00:00+00:00</time>
        <ele>3198.0</ele>
      </trkpt>
      <trkpt lat="35.371573" lon="138.739946">
        <time>1970-01-01T00:00:00+00:00</time>
        <ele>3197.0</ele>
      </trkpt>
      <trkpt lat="35.371575" lon="138.740021">
        <time>1970-01-01T00:00:00+00:00</time>
        <ele>3194.0</ele>
      </trkpt>
      <trkpt lat="35.371991" lon="138.739738">
        <time>1970-01-01T00:00:00+00:00</time>
        <ele>3179.0</ele>
      </trkpt>
      <trkpt lat="35.371991" lon="138.73993">
        <time>1970-01-01T00:00:00+00:00</time>
        <ele>3175.0</ele>
      </trkpt>
      <trkpt lat="35.372158" lon="138.739783">
        <time>1970-01-01T00:00:00+00:00</time>
        <ele>3168.0</ele>
      </trkpt>
      <trkpt lat="35.372136" lon="138.740006">
        <time>1970-01-01T00:00:00+00:00</time>
        <ele>3163.0</ele>
      </trkpt>
      <trkpt lat="35.372308" lon="138.739929">
        <time>1970-01-01T00:00:00+00:00</time>
        <ele>3156.0</ele>
      </trkpt>
      <trkpt lat="35.372302" lon="138.740083">
        <time>1970-01-01T00:00:00+00:00</time>
        <ele>3151.0</ele>
      </trkpt>
      <trkpt lat="35.372466" lon="138.739996">
        <time>1970-01-01T00:00:00+00:00</time>
        <ele>3147.0</ele>
      </trkpt>
      <trkpt lat="35.372481" lon="138.740373">
        <time>1970-01-01T00:00:00+00:00</time>
        <ele>3135.0</ele>
      </trkpt>
      <trkpt lat="35.372519" lon="138.740407">
        <time>1970-01-01T00:00:00+00:00</time>
        <ele>3132.0</ele>
      </trkpt>
      <trkpt lat="35.372693" lon="138.740258">
        <time>1970-01-01T00:00:00+00:00</time>
        <ele>3127.0</ele>
      </trkpt>
      <trkpt lat="35.37286" lon="138.740161">
        <time>1970-01-01T00:00:00+00:00</time>
        <ele>3119.0</ele>
      </trkpt>
      <trkpt lat="35.37293" lon="138.7405">
        <time>1970-01-01T00:00:00+00:00</time>
        <ele>3108.0</ele>
      </trkpt>
      <trkpt lat="35.372877" lon="138.741005">
        <time>1970-01-01T00:00:00+00:00</time>
        <ele>3097.0</ele>
      </trkpt>
      <trkpt lat="35.37303" lon="138.740965">
        <time>1970-01-01T00:00:00+00:00</time>
        <ele>3092.0</ele>
      </trkpt>
      <trkpt lat="35.372993" lon="138.741103">
        <time>1970-01-01T00:00:00+00:00</time>
        <ele>3088.0</ele>
      </trkpt>
      <trkpt lat="35.373105" lon="138.741012">
        <time>1970-01-01T00:00:00+00:00</time>
        <ele>3088.0</ele>
      </trkpt>
      <trkpt lat="35.373078" lon="138.741192">
        <time>1970-01-01T00:00:00+00:00</time>
        <ele>3081.0</ele>
      </trkpt>
      <trkpt lat="35.373226" lon="138.741141">
        <time>1970-01-01T00:00:00+00:00</time>
        <ele>3077.0</ele>
      </trkpt>
      <trkpt lat="35.373446" lon="138.741028">
        <time>1970-01-01T00:00:00+00:00</time>
        <ele>3070.0</ele>
      </trkpt>
      <trkpt lat="35.373651" lon="138.741076">
        <time>1970-01-01T00:00:00+00:00</time>
        <ele>3058.0</ele>
      </trkpt>
      <trkpt lat="35.373808" lon="138.741248">
        <time>1970-01-01T00:00:00+00:00</time>
        <ele>3045.0</ele>
      </trkpt>
      <trkpt lat="35.373803" lon="138.74138">
        <time>1970-01-01T00:00:00+00:00</time>
        <ele>3042.0</ele>
      </trkpt>
      <trkpt lat="35.373826" lon="138.741522">
        <time>1970-01-01T00:00:00+00:00</time>
        <ele>3036.0</ele>
      </trkpt>
      <trkpt lat="35.373866" lon="138.741624">
        <time>1970-01-01T00:00:00+00:00</time>
        <ele>3030.0</ele>
      </trkpt>
      <trkpt lat="35.373981" lon="138.741589">
        <time>1970-01-01T00:00:00+00:00</time>
        <ele>3026.0</ele>
      </trkpt>
      <trkpt lat="35.374161" lon="138.741425">
        <time>1970-01-01T00:00:00+00:00</time>
        <ele>3021.0</ele>
      </trkpt>
      <trkpt lat="35.37425" lon="138.741512">
        <time>1970-01-01T00:00:00+00:00</time>
        <ele>3015.0</ele>
      </trkpt>
      <trkpt lat="35.374243" lon="138.741671">
        <time>1970-01-01T00:00:00+00:00</time>
        <ele>3010.0</ele>
      </trkpt>
      <trkpt lat="35.374322" lon="138.741791">
        <time>1970-01-01T00:00:00+00:00</time>
        <ele>3004.0</ele>
      </trkpt>
      <trkpt lat="35.374301" lon="138.741883">
        <time>1970-01-01T00:00:00+00:00</time>
        <ele>3002.0</ele>
      </trkpt>
      <trkpt lat="35.374476" lon="138.742125">
        <time>1970-01-01T00:00:00+00:00</time>
        <ele>2988.0</ele>
      </trkpt>
      <trkpt lat="35.374501" lon="138.742308">
        <time>1970-01-01T00:00:00+00:00</time>
        <ele>2983.0</ele>
      </trkpt>
      <trkpt lat="35.374588" lon="138.742394">
        <time>1970-01-01T00:00:00+00:00</time>
        <ele>2977.0</ele>
      </trkpt>
      <trkpt lat="35.374765" lon="138.742513">
        <time>1970-01-01T00:00:00+00:00</time>
        <ele>2965.0</ele>
      </trkpt>
      <trkpt lat="35.37493" lon="138.74241">
        <time>1970-01-01T00:00:00+00:00</time>
        <ele>2964.0</ele>
      </trkpt>
      <trkpt lat="35.37511" lon="138.742702">
        <time>1970-01-01T00:00:00+00:00</time>
        <ele>2947.0</ele>
      </trkpt>
      <trkpt lat="35.375106" lon="138.742842">
        <time>1970-01-01T00:00:00+00:00</time>
        <ele>2941.0</ele>
      </trkpt>
      <trkpt lat="35.375131" lon="138.742939">
        <time>1970-01-01T00:00:00+00:00</time>
        <ele>2937.0</ele>
      </trkpt>
      <trkpt lat="35.375156" lon="138.742971">
        <time>1970-01-01T00:00:00+00:00</time>
        <ele>2935.0</ele>
      </trkpt>
      <trkpt lat="35.375315" lon="138.742955">
        <time>1970-01-01T00:00:00+00:00</time>
        <ele>2929.0</ele>
      </trkpt>
      <trkpt lat="35.375457" lon="138.742893">
        <time>1970-01-01T00:00:00+00:00</time>
        <ele>2926.0</ele>
      </trkpt>
      <trkpt lat="35.375542" lon="138.7429">
        <time>1970-01-01T00:00:00+00:00</time>
        <ele>2922.0</ele>
      </trkpt>
      <trkpt lat="35.375621" lon="138.742949">
        <time>1970-01-01T00:00:00+00:00</time>
        <ele>2917.0</ele>
      </trkpt>
      <trkpt lat="35.375746" lon="138.743088">
        <time>1970-01-01T00:00:00+00:00</time>
        <ele>2906.0</ele>
      </trkpt>
      <trkpt lat="35.37587" lon="138.74316">
        <time>1970-01-01T00:00:00+00:00</time>
        <ele>2898.0</ele>
      </trkpt>
      <trkpt lat="35.376047" lon="138.742879">
        <time>1970-01-01T00:00:00+00:00</time>
        <ele>2900.0</ele>
      </trkpt>
      <trkpt lat="35.376147" lon="138.742814">
        <time>1970-01-01T00:00:00+00:00</time>
        <ele>2896.0</ele>
      </trkpt>
      <trkpt lat="35.376235" lon="138.742783">
        <time>1970-01-01T00:00:00+00:00</time>
        <ele>2891.0</ele>
      </trkpt>
      <trkpt lat="35.376308" lon="138.742775">
        <time>1970-01-01T00:00:00+00:00</time>
        <ele>2887.0</ele>
      </trkpt>
      <trkpt lat="35.376445" lon="138.742816">
        <time>1970-01-01T00:00:00+00:00</time>
        <ele>2877.0</ele>
      </trkpt>
      <trkpt lat="35.37656" lon="138.742888">
        <time>1970-01-01T00:00:00+00:00</time>
        <ele>2869.0</ele>
      </trkpt>
      <trkpt lat="35.376661" lon="138.742926">
        <time>1970-01-01T00:00:00+00:00</time>
        <ele>2862.0</ele>
      </trkpt>
      <trkpt lat="35.376791" lon="138.742827">
        <time>1970-01-01T00:00:00+00:00</time>
        <ele>2860.0</ele>
      </trkpt>
      <trkpt lat="35.376966" lon="138.742839">
        <time>1970-01-01T00:00:00+00:00</time>
        <ele>2850.0</ele>
      </trkpt>
      <trkpt lat="35.376908" lon="138.742973">
        <time>1970-01-01T00:00:00+00:00</time>
        <ele>2851.0</ele>
      </trkpt>
      <trkpt lat="35.376981" lon="138.743028">
        <time>1970-01-01T00:00:00+00:00</time>
        <ele>2845.0</ele>
      </trkpt>
      <trkpt lat="35.377073" lon="138.743055">
        <time>1970-01-01T00:00:00+00:00</time>
        <ele>2839.0</ele>
      </trkpt>
      <trkpt lat="35.377154" lon="138.742966">
        <time>1970-01-01T00:00:00+00:00</time>
        <ele>2836.0</ele>
      </trkpt>
      <trkpt lat="35.377376" lon="138.742962">
        <time>1970-01-01T00:00:00+00:00</time>
        <ele>2824.0</ele>
      </trkpt>
      <trkpt lat="35.377498" lon="138.743101">
        <time>1970-01-01T00:00:00+00:00</time>
        <ele>2816.0</ele>
      </trkpt>
      <trkpt lat="35.377451" lon="138.7432">
        <time>1970-01-01T00:00:00+00:00</time>
        <ele>2815.0</ele>
      </trkpt>
      <trkpt lat="35.377375" lon="138.743304">
        <time>1970-01-01T00:00:00+00:00</time>
        <ele>2814.0</ele>
      </trkpt>
      <trkpt lat="35.377327" lon="138.743432">
        <time>1970-01-01T00:00:00+00:00</time>
        <ele>2811.0</ele>
      </trkpt>
      <trkpt lat="35.377385" lon="138.743493">
        <time>1970-01-01T00:00:00+00:00</time>
        <ele>2807.0</ele>
      </trkpt>
      <trkpt lat="35.377507" lon="138.743436">
        <time>1970-01-01T00:00:00+00:00</time>
        <ele>2804.0</ele>
      </trkpt>
      <trkpt lat="35.377645" lon="138.743408">
        <time>1970-01-01T00:00:00+00:00</time>
        <ele>2795.0</ele>
      </trkpt>
      <trkpt lat="35.377717" lon="138.743455">
        <time>1970-01-01T00:00:00+00:00</time>
        <ele>2789.0</ele>
      </trkpt>
      <trkpt lat="35.377751" lon="138.743519">
        <time>1970-01-01T00:00:00+00:00</time>
        <ele>2784.0</ele>
      </trkpt>
      <trkpt lat="35.377673" lon="138.743668">
        <time>1970-01-01T00:00:00+00:00</time>
        <ele>2784.0</ele>
      </trkpt>
      <trkpt lat="35.377704" lon="138.743742">
        <time>1970-01-01T00:00:00+00:00</time>
        <ele>2780.0</ele>
      </trkpt>
      <trkpt lat="35.377825" lon="138.743786">
        <time>1970-01-01T00:00:00+00:00</time>
        <ele>2773.0</ele>
      </trkpt>
      <trkpt lat="35.377934" lon="138.743739">
        <time>1970-01-01T00:00:00+00:00</time>
        <ele>2767.0</ele>
      </trkpt>
      <trkpt lat="35.378097" lon="138.743613">
        <time>1970-01-01T00:00:00+00:00</time>
        <ele>2763.0</ele>
      </trkpt>
      <trkpt lat="35.378243" lon="138.743599">
        <time>1970-01-01T00:00:00+00:00</time>
        <ele>2756.0</ele>
      </trkpt>
      <trkpt lat="35.37835" lon="138.743709">
        <time>1970-01-01T00:00:00+00:00</time>
        <ele>2748.0</ele>
      </trkpt>
      <trkpt lat="35.378371" lon="138.743776">
        <time>1970-01-01T00:00:00+00:00</time>
        <ele>2745.0</ele>
      </trkpt>
      <trkpt lat="35.378436" lon="138.743879">
        <time>1970-01-01T00:00:00+00:00</time>
        <ele>2739.0</ele>
      </trkpt>
      <trkpt lat="35.378385" lon="138.743949">
        <time>1970-01-01T00:00:00+00:00</time>
        <ele>2741.0</ele>
      </trkpt>
      <trkpt lat="35.378406" lon="138.744029">
        <time>1970-01-01T00:00:00+00:00</time>
        <ele>2738.0</ele>
      </trkpt>
      <trkpt lat="35.378474" lon="138.743992">
        <time>1970-01-01T00:00:00+00:00</time>
        <ele>2735.0</ele>
      </trkpt>
      <trkpt lat="35.378513" lon="138.744074">
        <time>1970-01-01T00:00:00+00:00</time>
        <ele>2730.0</ele>
      </trkpt>
      <trkpt lat="35.378582" lon="138.744017">
        <time>1970-01-01T00:00:00+00:00</time>
        <ele>2728.0</ele>
      </trkpt>
      <trkpt lat="35.378664" lon="138.743981">
        <time>1970-01-01T00:00:00+00:00</time>
        <ele>2725.0</ele>
      </trkpt>
      <trkpt lat="35.378735" lon="138.744017">
        <time>1970-01-01T00:00:00+00:00</time>
        <ele>2721.0</ele>
      </trkpt>
      <trkpt lat="35.378773" lon="138.744079">
        <time>1970-01-01T00:00:00+00:00</time>
        <ele>2718.0</ele>
      </trkpt>
      <trkpt lat="35.378781" lon="138.744193">
        <time>1970-01-01T00:00:00+00:00</time>
        <ele>2715.0</ele>
      </trkpt>
      <trkpt lat="35.378633" lon="138.744404">
        <time>1970-01-01T00:00:00+00:00</time>
        <ele>2714.0</ele>
      </trkpt>
      <trkpt lat="35.378619" lon="138.744516">
        <time>1970-01-01T00:00:00+00:00</time>
        <ele>2711.0</ele>
      </trkpt>
      <trkpt lat="35.378669" lon="138.744602">
        <time>1970-01-01T00:00:00+00:00</time>
        <ele>2706.0</ele>
      </trkpt>
      <trkpt lat="35.37875" lon="138.744626">
        <time>1970-01-01T00:00:00+00:00</time>
        <ele>2702.0</ele>
      </trkpt>
      <trkpt lat="35.378806" lon="138.744665">
        <time>1970-01-01T00:00:00+00:00</time>
        <ele>2699.0</ele>
      </trkpt>
      <trkpt lat="35.378726" lon="138.744807">
        <time>1970-01-01T00:00:00+00:00</time>
        <ele>2697.0</ele>
      </trkpt>
      <trkpt lat="35.378701" lon="138.744901">
        <time>1970-01-01T00:00:00+00:00</time>
        <ele>2695.0</ele>
      </trkpt>
      <trkpt lat="35.378792" lon="138.745337">
        <time>1970-01-01T00:00:00+00:00</time>
        <ele>2682.0</ele>
      </trkpt>
      <trkpt lat="35.378806" lon="138.745496">
        <time>1970-01-01T00:00:00+00:00</time>
        <ele>2677.0</ele>
      </trkpt>
      <trkpt lat="35.378902" lon="138.745489">
        <time>1970-01-01T00:00:00+00:00</time>
        <ele>2672.0</ele>
      </trkpt>
      <trkpt lat="35.379166" lon="138.745359">
        <time>1970-01-01T00:00:00+00:00</time>
        <ele>2663.0</ele>
      </trkpt>
      <trkpt lat="35.3792" lon="138.745455">
        <time>1970-01-01T00:00:00+00:00</time>
        <ele>2658.0</ele>
      </trkpt>
      <trkpt lat="35.379255" lon="138.745791">
        <time>1970-01-01T00:00:00+00:00</time>
        <ele>2644.0</ele>
      </trkpt>
      <trkpt lat="35.379296" lon="138.745895">
        <time>1970-01-01T00:00:00+00:00</time>
        <ele>2639.0</ele>
      </trkpt>
      <trkpt lat="35.379352" lon="138.745936">
        <time>1970-01-01T00:00:00+00:00</time>
        <ele>2636.0</ele>
      </trkpt>
      <trkpt lat="35.379476" lon="138.745936">
        <time>1970-01-01T00:00:00+00:00</time>
        <ele>2632.0</ele>
      </trkpt>
      <trkpt lat="35.379589" lon="138.745895">
        <time>1970-01-01T00:00:00+00:00</time>
        <ele>2628.0</ele>
      </trkpt>
      <trkpt lat="35.379949" lon="138.745702">
        <time>1970-01-01T00:00:00+00:00</time>
        <ele>2618.0</ele>
      </trkpt>
      <trkpt lat="35.380115" lon="138.745527">
        <time>1970-01-01T00:00:00+00:00</time>
        <ele>2619.0</ele>
      </trkpt>
      <trkpt lat="35.380338" lon="138.745503">
        <time>1970-01-01T00:00:00+00:00</time>
        <ele>2611.0</ele>
      </trkpt>
      <trkpt lat="35.380423" lon="138.745579">
        <time>1970-01-01T00:00:00+00:00</time>
        <ele>2605.0</ele>
      </trkpt>
      <trkpt lat="35.38058" lon="138.745785">
        <time>1970-01-01T00:00:00+00:00</time>
        <ele>2592.0</ele>
      </trkpt>
      <trkpt lat="35.380814" lon="138.74594">
        <time>1970-01-01T00:00:00+00:00</time>
        <ele>2582.0</ele>
      </trkpt>
      <trkpt lat="35.380824" lon="138.745995">
        <time>1970-01-01T00:00:00+00:00</time>
        <ele>2580.0</ele>
      </trkpt>
      <trkpt lat="35.380732" lon="138.746211">
        <time>1970-01-01T00:00:00+00:00</time>
        <ele>2574.0</ele>
      </trkpt>
      <trkpt lat="35.380738" lon="138.746237">
        <time>1970-01-01T00:00:00+00:00</time>
        <ele>2573.0</ele>
      </trkpt>
      <trkpt lat="35.380771" lon="138.746273">
        <time>1970-01-01T00:00:00+00:00</time>
        <ele>2571.0</ele>
      </trkpt>
      <trkpt lat="35.380986" lon="138.7463">
        <time>1970-01-01T00:00:00+00:00</time>
        <ele>2563.0</ele>
      </trkpt>
      <trkpt lat="35.381011" lon="138.746328">
        <time>1970-01-01T00:00:00+00:00</time>
        <ele>2561.0</ele>
      </trkpt>
      <trkpt lat="35.381016" lon="138.746398">
        <time>1970-01-01T00:00:00+00:00</time>
        <ele>2558.0</ele>
      </trkpt>
      <trkpt lat="35.380944" lon="138.746514">
        <time>1970-01-01T00:00:00+00:00</time>
        <ele>2557.0</ele>
      </trkpt>
      <trkpt lat="35.380945" lon="138.746542">
        <time>1970-01-01T00:00:00+00:00</time>
        <ele>2556.0</ele>
      </trkpt>
      <trkpt lat="35.380967" lon="138.74657">
        <time>1970-01-01T00:00:00+00:00</time>
        <ele>2554.0</ele>
      </trkpt>
      <trkpt lat="35.38138" lon="138.746678">
        <time>1970-01-01T00:00:00+00:00</time>
        <ele>2539.0</ele>
      </trkpt>
      <trkpt lat="35.381319" lon="138.746789">
        <time>1970-01-01T00:00:00+00:00</time>
        <ele>2538.0</ele>
      </trkpt>
      <trkpt lat="35.381244" lon="138.746871">
        <time>1970-01-01T00:00:00+00:00</time>
        <ele>2538.0</ele>
      </trkpt>
      <trkpt lat="35.38118" lon="138.746951">
        <time>1970-01-01T00:00:00+00:00</time>
        <ele>2538.0</ele>
      </trkpt>
      <trkpt lat="35.381153" lon="138.747042">
        <time>1970-01-01T00:00:00+00:00</time>
        <ele>2536.0</ele>
      </trkpt>
      <trkpt lat="35.381204" lon="138.747118">
        <time>1970-01-01T00:00:00+00:00</time>
        <ele>2531.0</ele>
      </trkpt>
      <trkpt lat="35.381353" lon="138.747174">
        <time>1970-01-01T00:00:00+00:00</time>
        <ele>2526.0</ele>
      </trkpt>
      <trkpt lat="35.381453" lon="138.747192">
        <time>1970-01-01T00:00:00+00:00</time>
        <ele>2523.0</ele>
      </trkpt>
      <trkpt lat="35.381677" lon="138.747285">
        <time>1970-01-01T00:00:00+00:00</time>
        <ele>2515.0</ele>
      </trkpt>
      <trkpt lat="35.381624" lon="138.747629">
        <time>1970-01-01T00:00:00+00:00</time>
        <ele>2506.0</ele>
      </trkpt>
      <trkpt lat="35.381489" lon="138.747869">
        <time>1970-01-01T00:00:00+00:00</time>
        <ele>2497.0</ele>
      </trkpt>
      <trkpt lat="35.382023" lon="138.747969">
        <time>1970-01-01T00:00:00+00:00</time>
        <ele>2480.0</ele>
      </trkpt>
      <trkpt lat="35.382236" lon="138.747801">
        <time>1970-01-01T00:00:00+00:00</time>
        <ele>2481.0</ele>
      </trkpt>
      <trkpt lat="35.382453" lon="138.747873">
        <time>1970-01-01T00:00:00+00:00</time>
        <ele>2471.0</ele>
      </trkpt>
      <trkpt lat="35.382695" lon="138.747817">
        <time>1970-01-01T00:00:00+00:00</time>
        <ele>2465.0</ele>
      </trkpt>
      <trkpt lat="35.382886" lon="138.747749">
        <time>1970-01-01T00:00:00+00:00</time>
        <ele>2459.0</ele>
      </trkpt>
      <trkpt lat="35.383032" lon="138.747676">
        <time>1970-01-01T00:00:00+00:00</time>
        <ele>2456.0</ele>
      </trkpt>
      <trkpt lat="35.38333" lon="138.747618">
        <time>1970-01-01T00:00:00+00:00</time>
        <ele>2449.0</ele>
      </trkpt>
      <trkpt lat="35.383526" lon="138.747729">
        <time>1970-01-01T00:00:00+00:00</time>
        <ele>2440.0</ele>
      </trkpt>
      <trkpt lat="35.384274" lon="138.74764">
        <time>1970-01-01T00:00:00+00:00</time>
        <ele>2426.0</ele>
      </trkpt>
      <trkpt lat="35.38475" lon="138.747611">
        <time>1970-01-01T00:00:00+00:00</time>
        <ele>2414.0</ele>
      </trkpt>
      <trkpt lat="35.385063" lon="138.747526">
        <time>1970-01-01T00:00:00+00:00</time>
        <ele>2403.0</ele>
      </trkpt>
      <trkpt lat="35.385245" lon="138.747718">
        <time>1970-01-01T00:00:00+00:00</time>
        <ele>2395.0</ele>
      </trkpt>
      <trkpt lat="35.385353" lon="138.74708">
        <time>1970-01-01T00:00:00+00:00</time>
        <ele>2397.0</ele>
      </trkpt>
      <trkpt lat="35.385415" lon="138.746913">
        <time>1970-01-01T00:00:00+00:00</time>
        <ele>2395.0</ele>
      </trkpt>
      <trkpt lat="35.385545" lon="138.74676">
        <time>1970-01-01T00:00:00+00:00</time>
        <ele>2390.0</ele>
      </trkpt>
      <trkpt lat="35.385636" lon="138.74658">
        <time>1970-01-01T00:00:00+00:00</time>
        <ele>2387.0</ele>
      </trkpt>
      <trkpt lat="35.385705" lon="138.746324">
        <time>1970-01-01T00:00:00+00:00</time>
        <ele>2387.0</ele>
      </trkpt>
      <trkpt lat="35.385668" lon="138.746171">
        <time>1970-01-01T00:00:00+00:00</time>
        <ele>2390.0</ele>
      </trkpt>
      <trkpt lat="35.385792" lon="138.745872">
        <time>1970-01-01T00:00:00+00:00</time>
        <ele>2387.0</ele>
      </trkpt>
      <trkpt lat="35.385952" lon="138.745626">
        <time>1970-01-01T00:00:00+00:00</time>
        <ele>2380.0</ele>
      </trkpt>
      <trkpt lat="35.38603" lon="138.745456">
        <time>1970-01-01T00:00:00+00:00</time>
        <ele>2376.0</ele>
      </trkpt>
      <trkpt lat="35.386079" lon="138.745276">
        <time>1970-01-01T00:00:00+00:00</time>
        <ele>2374.0</ele>
      </trkpt>
      <trkpt lat="35.386045" lon="138.745097">
        <time>1970-01-01T00:00:00+00:00</time>
        <ele>2378.0</ele>
      </trkpt>
      <trkpt lat="35.386113" lon="138.744948">
        <time>1970-01-01T00:00:00+00:00</time>
        <ele>2373.0</ele>
      </trkpt>
      <trkpt lat="35.386495" lon="138.744673">
        <time>1970-01-01T00:00:00+00:00</time>
        <ele>2350.0</ele>
      </trkpt>
      <trkpt lat="35.386947" lon="138.74412">
        <time>1970-01-01T00:00:00+00:00</time>
        <ele>2340.0</ele>
      </trkpt>
      <trkpt lat="35.387242" lon="138.743906">
        <time>1970-01-01T00:00:00+00:00</time>
        <ele>2332.0</ele>
      </trkpt>
      <trkpt lat="35.387512" lon="138.743755">
        <time>1970-01-01T00:00:00+00:00</time>
        <ele>2325.0</ele>
      </trkpt>
      <trkpt lat="35.387791" lon="138.743442">
        <time>1970-01-01T00:00:00+00:00</time>
        <ele>2325.0</ele>
      </trkpt>
      <trkpt lat="35.387944" lon="138.743303">
        <time>1970-01-01T00:00:00+00:00</time>
        <ele>2323.0</ele>
      </trkpt>
      <trkpt lat="35.388243" lon="138.743101">
        <time>1970-01-01T00:00:00+00:00</time>
        <ele>2320.0</ele>
      </trkpt>
      <trkpt lat="35.388583" lon="138.742755">
        <time>1970-01-01T00:00:00+00:00</time>
        <ele>2307.0</ele>
      </trkpt>
      <trkpt lat="35.389009" lon="138.742427">
        <time>1970-01-01T00:00:00+00:00</time>
        <ele>2292.0</ele>
      </trkpt>
      <trkpt lat="35.389362" lon="138.742287">
        <time>1970-01-01T00:00:00+00:00</time>
        <ele>2286.0</ele>
      </trkpt>
      <trkpt lat="35.389787" lon="138.742144">
        <time>1970-01-01T00:00:00+00:00</time>
        <ele>2283.0</ele>
      </trkpt>
      <trkpt lat="35.390033" lon="138.742125">
        <time>1970-01-01T00:00:00+00:00</time>
        <ele>2274.0</ele>
      </trkpt>
      <trkpt lat="35.390253" lon="138.741703">
        <time>1970-01-01T00:00:00+00:00</time>
        <ele>2280.0</ele>
      </trkpt>
      <trkpt lat="35.390309" lon="138.741564">
        <time>1970-01-01T00:00:00+00:00</time>
        <ele>2281.0</ele>
      </trkpt>
      <trkpt lat="35.390391" lon="138.741234">
        <time>1970-01-01T00:00:00+00:00</time>
        <ele>2283.0</ele>
      </trkpt>
      <trkpt lat="35.390426" lon="138.741001">
        <time>1970-01-01T00:00:00+00:00</time>
        <ele>2287.0</ele>
      </trkpt>
      <trkpt lat="35.390429" lon="138.740502">
        <time>1970-01-01T00:00:00+00:00</time>
        <ele>2292.0</ele>
      </trkpt>
      <trkpt lat="35.390873" lon="138.73887">
        <time>1970-01-01T00:00:00+00:00</time>
        <ele>2299.0</ele>
      </trkpt>
      <trkpt lat="35.391515" lon="138.737068">
        <time>1970-01-01T00:00:00+00:00</time>
        <ele>2307.0</ele>
      </trkpt>
      <trkpt lat="35.391661" lon="138.736526">
        <time>1970-01-01T00:00:00+00:00</time>
        <ele>2310.0</ele>
      </trkpt>
      <trkpt lat="35.391966" lon="138.735821">
        <time>1970-01-01T00:00:00+00:00</time>
        <ele>2307.0</ele>
      </trkpt>
      <trkpt lat="35.39216" lon="138.735511">
        <time>1970-01-01T00:00:00+00:00</time>
        <ele>2307.0</ele>
      </trkpt>
      <trkpt lat="35.392312" lon="138.73518">
        <time>1970-01-01T00:00:00+00:00</time>
        <ele>2312.0</ele>
      </trkpt>
      <trkpt lat="35.392432" lon="138.734781">
        <time>1970-01-01T00:00:00+00:00</time>
        <ele>2318.0</ele>
      </trkpt>
      <trkpt lat="35.392543" lon="138.734537">
        <time>1970-01-01T00:00:00+00:00</time>
        <ele>2319.0</ele>
      </trkpt>
      <trkpt lat="35.392745" lon="138.734286">
        <time>1970-01-01T00:00:00+00:00</time>
        <ele>2315.0</ele>
      </trkpt>
      <trkpt lat="35.393213" lon="138.73391">
        <time>1970-01-01T00:00:00+00:00</time>
        <ele>2310.0</ele>
      </trkpt>
      <trkpt lat="35.393657" lon="138.733681">
        <time>1970-01-01T00:00:00+00:00</time>
        <ele>2307.0</ele>
      </trkpt>
      <trkpt lat="35.393909" lon="138.733576">
        <time>1970-01-01T00:00:00+00:00</time>
        <ele>2306.0</ele>
      </trkpt>
      <trkpt lat="35.394006" lon="138.733428">
        <time>1970-01-01T00:00:00+00:00</time>
        <ele>2308.0</ele>
      </trkpt>
      <trkpt lat="35.394069" lon="138.733408">
        <time>1970-01-01T00:00:00+00:00</time>
        <ele>2308.0</ele>
      </trkpt>
      <trkpt lat="35.394123" lon="138.733413">
        <time>1970-01-01T00:00:00+00:00</time>
        <ele>2307.0</ele>
      </trkpt>
      <trkpt lat="35.394175" lon="138.733389">
        <time>1970-01-01T00:00:00+00:00</time>
        <ele>2306.0</ele>
      </trkpt>
      <trkpt lat="35.394257" lon="138.733322">
        <time>1970-01-01T00:00:00+00:00</time>
        <ele>2306.0</ele>
      </trkpt>
      <trkpt lat="35.394313" lon="138.733225">
        <time>1970-01-01T00:00:00+00:00</time>
        <ele>2306.0</ele>
      </trkpt>
      <trkpt lat="35.394369" lon="138.73305">
        <time>1970-01-01T00:00:00+00:00</time>
        <ele>2306.0</ele>
      </trkpt>
      <trkpt lat="35.394414" lon="138.732939">
        <time>1970-01-01T00:00:00+00:00</time>
        <ele>2306.0</ele>
      </trkpt>
      <trkpt lat="35.394484" lon="138.732909">
        <time>1970-01-01T00:00:00+00:00</time>
        <ele>2307.0</ele>
      </trkpt>
      <trkpt lat="35.39454" lon="138.732852">
        <time>1970-01-01T00:00:00+00:00</time>
        <ele>2307.0</ele>
      </trkpt>
      <trkpt lat="35.394607" lon="138.73293">
        <time>1970-01-01T00:00:00+00:00</time>
        <ele>2307.0</ele>
      </trkpt>
      <trkpt lat="35.39467" lon="138.732957">
        <time>1970-01-01T00:00:00+00:00</time>
        <ele>2307.0</ele>
      </trkpt>
      <trkpt lat="35.394774" lon="138.732971">
        <time>1970-01-01T00:00:00+00:00</time>
        <ele>2306.0</ele>
      </trkpt>
      <trkpt lat="35.394968" lon="138.73291">
        <time>1970-01-01T00:00:00+00:00</time>
        <ele>2303.0</ele>
      </trkpt>
      <trkpt lat="35.39499" lon="138.732904">
        <time>1970-01-01T00:00:00+00:00</time>
        <ele>2302.0</ele>
      </trkpt>
      <trkpt lat="35.394928" lon="138.732653">
        <time>1970-01-01T00:00:00+00:00</time>
        <ele>2301.0</ele>
      </trkpt>
      <trkpt lat="35.394751" lon="138.73271">
        <time>1970-01-01T00:00:00+00:00</time>
        <ele>2304.0</ele>
      </trkpt>
      <trkpt lat="35.394756" lon="138.73273">
        <time>1970-01-01T00:00:00+00:00</time>
        <ele>2305.0</ele>
      </trkpt>
    </trkseg>
  </trk>
</gpx>
